CZ-6A DEB, 58202

Orbit data source: Space-Track

CZ-6A DEB, 58202 is space debris in SSO originally from a launch on Tue, 31 Oct 2023 UTC launched from the Taiyaun Space Center, China (TSC). Debris objects in space refer to the collection of defunct objects orbiting the Earth. Examples of debris include non-operational satellites, rocket bodies, and fragments generated from explosions, collisions, or faulty payload assembly.

Loading next visibility...
Identifier
58202, 2023-168D
Orbit
SSO
Country
Flag of CNCN / PRC
Related business
Manufacturer
SAST
Mission
Spacecraft
Bus & Motor
Unknown
Mass
~50 kg wet, ~50 kg dry
Launch date (UTC)
2023-10-31 (2 years ago)
Launch vehicle
Unknown
Launch site
Taiyaun Space Center, China (TSC)
Object type
Payload
Rocket body
Debris
Shape & HBR
Cone, 0.3 m
Radar Cross Section
0.159 m², Large (>1 m²)

Expand to show TLE details & history
Last TLE update: 14 hours ago

TLE from 14 hours ago
0 CZ-6A DEB
1 58202U 23168D   26095.03298899  .00042873  00000-0  14516-2 0  9990
2 58202  97.7747 125.7685 0003854 137.5666 222.5872 15.30453606133231
Epoch: 2026-04-05T00:47Z
TLE epoch observation values (Epoch: 2026-04-05T00:47:30.248Z)
Latitude
-0.00007°
Longitude
-79.45175°
Altitude
479.497 km
Speed
7.625 km/s
True Right ascension
08h 23m 04s
True Declination
0° 00' 00"
Sunlit
Object was in partial shadow at epoch
Visualization orbit readout
Latitude
Unknown
Longitude
Unknown
Altitude
Unknown
Speed
Unknown
Apparent Right ascension
Unknown
Apparent Declination
Unknown
Sunlit
N/A
Visualization observer readout
Local Sidereal Time
21:10:47
Azimuth
Unknown
Elevation
Unknown
Doppler factor
Unknown
Orbital elements
Apogee altitude
474.066 km
Perigee altitude
468.786 km
Semi-major axis
6,849.563 km
Eccentricity
0.00039
Inclination
97.7747°
RAAN
125.7685°
Arg. of periapsis
137.5666°
True anomaly
222.55732°
Mean anomaly
222.5872°
Eccentric anomaly
222.57226°
Mean motion
3.82868 °/min
Orbital period
94.03 mins
BSTAR
0.0014516
Loading maneuver chart data...
Computing Atmospheric mass density...
Loading historical data...
Loading historical data...
Loading historical data...
Loading historical data...
Loading historical data...
Loading historical data...
Loading historical data...
Other satellites on launch #168 in the year 2023 (2023-10-31 UTC)

Documentation

Showing up to 5 results
|